| time (UTC) | temp F | wind direction | speed MPH | gust MPH | rain 1hr in | rain 24hr in | rain mn in | humidity % | barometer mb |
| 20260504033036 | 62 | 315 | 2.0 | 3.0 | 0.00 | 0.00 | 0.00 | 42 | 1019.9 |
| 20260504032516 | 62 | 293 | 2.0 | 3.0 | 0.00 | 0.00 | 0.00 | 41 | 1019.9 |
| 20260504032017 | 62 | 315 | 2.0 | 3.0 | 0.00 | 0.00 | 0.00 | 41 | 1019.8 |
| 20260504031517 | 63 | 293 | 2.0 | 4.0 | 0.00 | 0.00 | 0.00 | 41 | 1019.9 |
| 20260504031036 | 62 | 315 | 2.0 | 3.0 | 0.00 | 0.00 | 0.00 | 41 | 1019.9 |
| 20260504030516 | 62 | 315 | 2.0 | 4.0 | 0.00 | 0.00 | 0.00 | 41 | 1020.0 |
| 20260504030016 | 62 | 315 | 2.0 | 3.0 | 0.00 | 0.00 | 0.00 | 41 | 1019.9 |
| 20260504025516 | 62 | 293 | 2.0 | 3.0 | 0.00 | 0.00 | 0.00 | 41 | 1020.0 |
| 20260504025016 | 62 | 315 | 2.0 | 3.0 | 0.00 | 0.00 | 0.00 | 41 | 1019.9 |
| 20260504024516 | 62 | 293 | 2.0 | 4.0 | 0.00 | 0.00 | 0.00 | 41 | 1020.0 |
| 20260504024016 | 62 | 338 | 2.0 | 3.0 | 0.00 | 0.00 | 0.00 | 41 | 1020.0 |
| 20260504023516 | 62 | 315 | 2.0 | 4.0 | 0.00 | 0.00 | 0.00 | 42 | 1020.0 |
| 20260504023016 | 62 | 315 | 2.0 | 3.0 | 0.00 | 0.00 | 0.00 | 42 | 1020.0 |
| 20260504022536 | 62 | 315 | 3.0 | 4.0 | 0.00 | 0.00 | 0.00 | 42 | 1020.0 |
| 20260504022016 | 62 | 338 | 2.0 | 4.0 | 0.00 | 0.00 | 0.00 | 43 | 1020.1 |
| 20260504021516 | 62 | 315 | 3.0 | 5.0 | 0.00 | 0.00 | 0.00 | 42 | 1020.1 |
| 20260504021036 | 62 | 315 | 4.0 | 5.0 | 0.00 | 0.00 | 0.00 | 42 | 1020.1 |
| 20260504020516 | 62 | 315 | 3.0 | 4.0 | 0.00 | 0.00 | 0.00 | 42 | 1020.1 |
| 20260504020016 | 62 | 315 | 3.0 | 4.0 | 0.00 | 0.00 | 0.00 | 42 | 1020.1 |
| 20260504015516 | 62 | 315 | 3.0 | 5.0 | 0.00 | 0.00 | 0.00 | 42 | 1020.1 |
| 20260504015016 | 62 | 338 | 2.0 | 3.0 | 0.00 | 0.00 | 0.00 | 42 | 1020.1 |
| 20260504014518 | 62 | 315 | 2.0 | 4.0 | 0.00 | 0.00 | 0.00 | 42 | 1020.2 |
| 20260504014018 | 62 | 315 | 3.0 | 4.0 | 0.00 | 0.00 | 0.00 | 42 | 1020.1 |
| 20260504013538 | 62 | 315 | 3.0 | 4.0 | 0.00 | 0.00 | 0.00 | 42 | 1020.1 |
| 20260504013018 | 62 | 315 | 3.0 | 4.0 | 0.00 | 0.00 | 0.00 | 41 | 1020.2 |
| 20260504012518 | 62 | 315 | 3.0 | 4.0 | 0.00 | 0.00 | 0.00 | 41 | 1020.2 |
| 20260504012018 | 62 | 315 | 2.0 | 3.0 | 0.00 | 0.00 | 0.00 | 41 | 1020.2 |
| 20260504011518 | 62 | 315 | 2.0 | 4.0 | 0.00 | 0.00 | 0.00 | 41 | 1020.2 |
| 20260504011018 | 62 | 315 | 2.0 | 3.0 | 0.00 | 0.00 | 0.00 | 41 | 1020.2 |
| 20260504010518 | 62 | 315 | 2.0 | 4.0 | 0.00 | 0.00 | 0.00 | 41 | 1020.2 |
| 20260504010018 | 62 | 315 | 2.0 | 4.0 | 0.00 | 0.00 | 0.00 | 41 | 1020.2 |
| 20260504005518 | 62 | 293 | 2.0 | 4.0 | 0.00 | 0.00 | 0.00 | 41 | 1020.2 |
| 20260504005018 | 62 | 315 | 2.0 | 3.0 | 0.00 | 0.00 | 0.00 | 41 | 1020.3 |
| 20260504004538 | 62 | 293 | 3.0 | 5.0 | 0.00 | 0.00 | 0.00 | 41 | 1020.3 |
| 20260504004017 | 62 | 315 | 3.0 | 5.0 | 0.00 | 0.00 | 0.00 | 42 | 1020.2 |
| 20260504003518 | 62 | 293 | 3.0 | 5.0 | 0.00 | 0.00 | 0.00 | 42 | 1020.3 |
| 20260504003018 | 62 | 293 | 3.0 | 5.0 | 0.00 | 0.00 | 0.00 | 42 | 1020.2 |
| 20260504002558 | 62 | 293 | 3.0 | 5.0 | 0.00 | 0.00 | 0.00 | 43 | 1020.3 |
| 20260504002017 | 62 | 293 | 3.0 | 5.0 | 0.00 | 0.00 | 0.00 | 43 | 1020.3 |
| 20260504001518 | 62 | 293 | 3.0 | 6.0 | 0.00 | 0.00 | 0.00 | 44 | 1020.3 |
| 20260504001017 | 62 | 293 | 3.0 | 5.0 | 0.00 | 0.00 | 0.00 | 44 | 1020.3 |
| 20260504000518 | 62 | 293 | 3.0 | 6.0 | 0.00 | 0.00 | 0.00 | 44 | 1020.3 |
| 20260504000017 | 62 | 293 | 3.0 | 5.0 | 0.00 | 0.00 | 0.00 | 45 | 1020.4 |
| 20260503235518 | 61 | 293 | 3.0 | 5.0 | 0.00 | 0.00 | 0.00 | 46 | 1020.4 |
| 20260503235017 | 61 | 293 | 2.0 | 6.0 | 0.00 | 0.00 | 0.00 | 47 | 1020.4 |
| 20260503234538 | 61 | 293 | 3.0 | 5.0 | 0.00 | 0.00 | 0.00 | 49 | 1020.4 |
| 20260503234017 | 62 | 293 | 2.0 | 4.0 | 0.00 | 0.00 | 0.00 | 50 | 1020.5 |
| 20260503233518 | 62 | 293 | 3.0 | 4.0 | 0.00 | 0.00 | 0.00 | 50 | 1020.6 |
| 20260503233017 | 61 | 293 | 3.0 | 5.0 | 0.00 | 0.00 | 0.00 | 50 | 1020.6 |
| 20260503232517 | 61 | 293 | 3.0 | 5.0 | 0.00 | 0.00 | 0.00 | 50 | 1020.6 |
| 20260503232017 | 61 | 293 | 3.0 | 6.0 | 0.00 | 0.00 | 0.00 | 50 | 1020.7 |
| 20260503231518 | 61 | 293 | 3.0 | 6.0 | 0.00 | 0.00 | 0.00 | 51 | 1020.7 |
| 20260503231018 | 62 | 293 | 3.0 | 6.0 | 0.00 | 0.00 | 0.00 | 50 | 1020.8 |
| 20260503230518 | 62 | 293 | 3.0 | 5.0 | 0.00 | 0.00 | 0.00 | 52 | 1020.7 |
| 20260503230018 | 61 | 293 | 3.0 | 5.0 | 0.00 | 0.00 | 0.00 | 54 | 1020.8 |
| 20260503225518 | 61 | 293 | 2.0 | 5.0 | 0.00 | 0.00 | 0.00 | 53 | 1020.9 |
| 20260503225037 | 62 | 315 | 3.0 | 5.0 | 0.00 | 0.00 | 0.00 | 54 | 1020.9 |
| 20260503224518 | 62 | 315 | 3.0 | 4.0 | 0.00 | 0.00 | 0.00 | 54 | 1021.0 |
| 20260503224017 | 62 | 293 | 3.0 | 5.0 | 0.00 | 0.00 | 0.00 | 54 | 1020.9 |
| 20260503223517 | 62 | 293 | 3.0 | 5.0 | 0.00 | 0.00 | 0.00 | 54 | 1021.0 |
| 20260503223018 | 62 | 293 | 3.0 | 5.0 | 0.00 | 0.00 | 0.00 | 54 | 1021.0 |
| 20260503222517 | 61 | 315 | 2.0 | 4.0 | 0.00 | 0.00 | 0.00 | 55 | 1021.0 |
| 20260503222017 | 61 | 315 | 3.0 | 5.0 | 0.00 | 0.00 | 0.00 | 56 | 1020.9 |
| 20260503221557 | 61 | 315 | 2.0 | 4.0 | 0.00 | 0.00 | 0.00 | 57 | 1021.0 |
| 20260503221017 | 61 | 293 | 3.0 | 4.0 | 0.00 | 0.00 | 0.00 | 57 | 1021.0 |
| 20260503220517 | 61 | 293 | 3.0 | 5.0 | 0.00 | 0.00 | 0.00 | 60 | 1020.9 |
| 20260503220017 | 61 | 315 | 2.0 | 4.0 | 0.00 | 0.00 | 0.00 | 62 | 1021.0 |
| 20260503215537 | 61 | 293 | 2.0 | 3.0 | 0.00 | 0.00 | 0.00 | 63 | 1020.9 |
| 20260503215017 | 61 | 293 | 2.0 | 5.0 | 0.00 | 0.00 | 0.00 | 64 | 1021.0 |
| 20260503214517 | 61 | 293 | 4.0 | 7.0 | 0.00 | 0.00 | 0.00 | 64 | 1021.0 |
| 20260503214017 | 61 | 293 | 4.0 | 9.0 | 0.00 | 0.00 | 0.00 | 66 | 1021.1 |
| 20260503213517 | 61 | 293 | 5.0 | 7.0 | 0.00 | 0.00 | 0.00 | 67 | 1021.1 |
| 20260503213017 | 61 | 315 | 2.0 | 3.0 | 0.00 | 0.00 | 0.00 | 68 | 1021.1 |
| 20260503212517 | 61 | 315 | 3.0 | 5.0 | 0.00 | 0.00 | 0.00 | 69 | 1021.1 |
| 20260503212017 | 61 | 315 | 3.0 | 5.0 | 0.00 | 0.00 | 0.00 | 69 | 1021.1 |
| 20260503211517 | 61 | 293 | 4.0 | 6.0 | 0.00 | 0.00 | 0.00 | 70 | 1021.1 |
| 20260503211017 | 61 | 293 | 2.0 | 4.0 | 0.00 | 0.00 | 0.00 | 70 | 1021.1 |
| 20260503210517 | 61 | 315 | 3.0 | 6.0 | 0.00 | 0.00 | 0.00 | 70 | 1021.1 |
| 20260503210017 | 61 | 293 | 3.0 | 6.0 | 0.00 | 0.00 | 0.00 | 70 | 1021.2 |
| 20260503205537 | 61 | 293 | 2.0 | 4.0 | 0.00 | 0.00 | 0.00 | 70 | 1021.2 |
| 20260503205017 | 61 | 315 | 2.0 | 4.0 | 0.00 | 0.00 | 0.00 | 70 | 1021.2 |
| 20260503204517 | 61 | 293 | 2.0 | 6.0 | 0.00 | 0.00 | 0.00 | 70 | 1021.2 |
| 20260503204017 | 61 | 293 | 3.0 | 6.0 | 0.00 | 0.00 | 0.00 | 71 | 1021.1 |
| 20260503203537 | 61 | 293 | 3.0 | 6.0 | 0.00 | 0.00 | 0.00 | 71 | 1021.1 |
| 20260503203017 | 61 | 293 | 3.0 | 6.0 | 0.00 | 0.00 | 0.00 | 71 | 1021.1 |
| 20260503202517 | 61 | 293 | 4.0 | 9.0 | 0.00 | 0.00 | 0.00 | 70 | 1021.1 |
| 20260503202017 | 61 | 293 | 4.0 | 7.0 | 0.00 | 0.00 | 0.00 | 70 | 1021.0 |
| 20260503201537 | 61 | 315 | 4.0 | 10.0 | 0.00 | 0.00 | 0.00 | 70 | 1021.0 |
| 20260503201037 | 61 | 315 | 4.0 | 9.0 | 0.00 | 0.00 | 0.00 | 71 | 1021.0 |
| 20260503200517 | 61 | 293 | 4.0 | 8.0 | 0.00 | 0.00 | 0.00 | 71 | 1020.9 |
| 20260503200017 | 61 | 293 | 3.0 | 5.0 | 0.00 | 0.00 | 0.00 | 71 | 1020.9 |
| 20260503195517 | 61 | 293 | 5.0 | 11.0 | 0.00 | 0.00 | 0.00 | 71 | 1020.9 |
| 20260503195017 | 61 | 315 | 4.0 | 9.0 | 0.00 | 0.00 | 0.00 | 71 | 1021.0 |
| 20260503194518 | 61 | 315 | 4.0 | 6.0 | 0.00 | 0.00 | 0.00 | 70 | 1021.1 |
| 20260503194037 | 61 | 293 | 4.0 | 7.0 | 0.00 | 0.00 | 0.00 | 71 | 1021.1 |
| 20260503193517 | 61 | 293 | 2.0 | 4.0 | 0.00 | 0.00 | 0.00 | 71 | 1021.2 |
| 20260503193017 | 61 | 293 | 3.0 | 7.0 | 0.00 | 0.00 | 0.00 | 71 | 1021.1 |
| 20260503192537 | 61 | 293 | 3.0 | 9.0 | 0.00 | 0.00 | 0.00 | 71 | 1021.1 |
| 20260503192017 | 61 | 270 | 2.0 | 7.0 | 0.00 | 0.00 | 0.00 | 71 | 1021.1 |
| 20260503191517 | 61 | 270 | 3.0 | 6.0 | 0.00 | 0.00 | 0.00 | 71 | 1021.1 |
| 20260503191017 | 62 | 270 | 3.0 | 7.0 | 0.00 | 0.00 | 0.00 | 71 | 1020.9 |
| 20260503190517 | 62 | 270 | 1.0 | 4.0 | 0.00 | 0.00 | 0.00 | 70 | 1020.8 |
| 20260503190016 | 62 | 248 | 1.0 | 2.0 | 0.00 | 0.00 | 0.00 | 70 | 1020.8 |
| 20260503185516 | 61 | 0 | 1.0 | 4.0 | 0.00 | 0.00 | 0.00 | 70 | 1020.7 |
| 20260503185016 | 62 | 338 | 4.0 | 6.0 | 0.00 | 0.00 | 0.00 | 70 | 1020.7 |
| 20260503184557 | 62 | 338 | 5.0 | 9.0 | 0.00 | 0.00 | 0.00 | 70 | 1020.6 |
| 20260503184036 | 62 | 338 | 5.0 | 7.0 | 0.00 | 0.00 | 0.00 | 69 | 1020.6 |
| 20260503183516 | 62 | 0 | 4.0 | 7.0 | 0.00 | 0.00 | 0.00 | 68 | 1020.7 |
| 20260503183017 | 62 | 0 | 4.0 | 7.0 | 0.00 | 0.00 | 0.00 | 67 | 1020.6 |
| 20260503182517 | 62 | 0 | 3.0 | 9.0 | 0.00 | 0.00 | 0.00 | 67 | 1020.5 |
| 20260503182017 | 62 | 0 | 2.0 | 5.0 | 0.00 | 0.00 | 0.00 | 66 | 1020.2 |
| 20260503181516 | 62 | 315 | 2.0 | 6.0 | 0.00 | 0.00 | 0.00 | 66 | 1020.3 |
| 20260503181016 | 62 | 315 | 3.0 | 9.0 | 0.00 | 0.00 | 0.00 | 65 | 1020.3 |
| 20260503180517 | 62 | 315 | 3.0 | 6.0 | 0.00 | 0.00 | 0.00 | 65 | 1020.2 |
| 20260503180016 | 62 | 338 | 2.0 | 6.0 | 0.00 | 0.00 | 0.00 | 65 | 1020.1 |
| 20260503175517 | 63 | 315 | 4.0 | 9.0 | 0.00 | 0.00 | 0.00 | 65 | 1020.0 |
| 20260503175017 | 63 | 293 | 3.0 | 6.0 | 0.00 | 0.00 | 0.00 | 64 | 1019.9 |
| 20260503174516 | 63 | 293 | 3.0 | 5.0 | 0.00 | 0.00 | 0.00 | 63 | 1019.9 |
| 20260503174037 | 63 | 315 | 3.0 | 6.0 | 0.00 | 0.00 | 0.00 | 63 | 1020.0 |
| 20260503173517 | 63 | 293 | 4.0 | 7.0 | 0.00 | 0.00 | 0.00 | 62 | 1020.0 |
| 20260503173016 | 64 | 293 | 3.0 | 6.0 | 0.00 | 0.00 | 0.00 | 61 | 1020.1 |
| 20260503172516 | 64 | 293 | 4.0 | 7.0 | 0.00 | 0.00 | 0.00 | 61 | 1020.0 |
| 20260503172016 | 64 | 293 | 3.0 | 7.0 | 0.00 | 0.00 | 0.00 | 60 | 1020.1 |
| 20260503171517 | 64 | 293 | 3.0 | 6.0 | 0.00 | 0.00 | 0.00 | 60 | 1020.0 |
| 20260503171016 | 64 | 293 | 3.0 | 6.0 | 0.00 | 0.00 | 0.00 | 60 | 1019.9 |
| 20260503170516 | 64 | 248 | 2.0 | 5.0 | 0.00 | 0.00 | 0.00 | 60 | 1019.9 |
| 20260503160137 | 67 | 338 | 5.0 | 12.0 | 0.00 | 0.00 | 0.00 | 48 | 1019.9 |
| 20260503150516 | 68 | 23 | 5.0 | 11.0 | 0.00 | 0.00 | 0.00 | 47 | 1019.6 |
| 20260503131017 | 69 | 315 | 6.0 | 14.0 | 0.00 | 0.00 | 0.00 | 49 | 1020.0 |
| 20260503130518 | 69 | 315 | 6.0 | 18.0 | 0.00 | 0.00 | 0.00 | 51 | 1020.0 |
| 20260503110518 | 68 | 270 | 11.0 | 24.0 | 0.00 | 0.00 | 0.00 | 50 | 1020.7 |
| 20260503081517 | 66 | 270 | 6.0 | 13.0 | 0.00 | 0.00 | 0.00 | 54 | 1020.9 |
| 20260503081017 | 65 | 293 | 7.0 | 17.0 | 0.00 | 0.00 | 0.00 | 55 | 1021.0 |
| 20260503080517 | 65 | 270 | 8.0 | 18.0 | 0.00 | 0.00 | 0.00 | 55 | 1021.1 |
| 20260503072557 | 64 | 270 | 11.0 | 23.0 | 0.00 | 0.00 | 0.00 | 56 | 1021.2 |
| 20260503072037 | 64 | 270 | 9.0 | 21.0 | 0.00 | 0.00 | 0.00 | 56 | 1021.2 |
| 20260503071517 | 64 | 270 | 8.0 | 14.0 | 0.00 | 0.00 | 0.00 | 56 | 1021.2 |
| 20260503071017 | 64 | 270 | 6.0 | 17.0 | 0.00 | 0.00 | 0.00 | 56 | 1021.2 |
| 20260503070517 | 64 | 270 | 8.0 | 17.0 | 0.00 | 0.00 | 0.00 | 55 | 1021.2 |
| 20260503055017 | 63 | 225 | 7.0 | 12.0 | 0.00 | 0.00 | 0.00 | 57 | 1021.2 |
| 20260503054516 | 62 | 225 | 7.0 | 19.0 | 0.00 | 0.00 | 0.00 | 58 | 1021.2 |
| 20260503054016 | 62 | 180 | 7.0 | 13.0 | 0.00 | 0.00 | 0.00 | 58 | 1021.4 |
| 20260503053517 | 62 | 203 | 6.0 | 16.0 | 0.00 | 0.00 | 0.00 | 59 | 1021.2 |
| 20260503053016 | 62 | 248 | 6.0 | 14.0 | 0.00 | 0.00 | 0.00 | 59 | 1021.0 |
| 20260503052516 | 61 | 113 | 3.0 | 9.0 | 0.00 | 0.00 | 0.00 | 60 | 1021.2 |
| 20260503052016 | 61 | 270 | 4.0 | 11.0 | 0.00 | 0.00 | 0.00 | 61 | 1021.1 |
| 20260503051517 | 61 | 180 | 4.0 | 11.0 | 0.00 | 0.00 | 0.00 | 61 | 1021.3 |
| 20260503051016 | 60 | 158 | 1.0 | 3.0 | 0.00 | 0.00 | 0.00 | 64 | 1021.3 |
| 20260503050517 | 60 | 135 | 4.0 | 15.0 | 0.00 | 0.00 | 0.00 | 64 | 1021.1 |
| 20260503050036 | 60 | 315 | 2.0 | 6.0 | 0.00 | 0.00 | 0.00 | 63 | 1021.2 |
| 20260503045517 | 59 | 68 | 2.0 | 4.0 | 0.00 | 0.00 | 0.00 | 66 | 1021.1 |
| 20260503045037 | 59 | 113 | 1.0 | 3.0 | 0.00 | 0.00 | 0.00 | 66 | 1021.2 |
| 20260503044517 | 58 | 203 | 3.0 | 7.0 | 0.00 | 0.00 | 0.00 | 68 | 1021.1 |
| 20260503044017 | 58 | 293 | 2.0 | 7.0 | 0.00 | 0.00 | 0.00 | 68 | 1021.1 |
| 20260503043517 | 58 | 0.0 | 2.0 | 0.00 | 0.00 | 0.00 | 69 | 1021.0 | |
| 20260503043016 | 57 | 293 | 3.0 | 5.0 | 0.00 | 0.00 | 0.00 | 69 | 1021.0 |
| 20260503042516 | 58 | 248 | 1.0 | 2.0 | 0.00 | 0.00 | 0.00 | 69 | 1020.9 |
| 20260503042016 | 58 | 248 | 1.0 | 4.0 | 0.00 | 0.00 | 0.00 | 68 | 1021.0 |
| 20260503041016 | 58 | 23 | 2.0 | 4.0 | 0.00 | 0.00 | 0.00 | 69 | 1020.9 |
| 20260503040517 | 58 | 0.0 | 1.0 | 0.00 | 0.00 | 0.00 | 68 | 1020.9 | |
| 20260503040016 | 58 | 113 | 1.0 | 3.0 | 0.00 | 0.00 | 0.00 | 68 | 1020.8 |
| 20260503035517 | 58 | 158 | 1.0 | 2.0 | 0.00 | 0.00 | 0.00 | 67 | 1020.8 |
| 20260503035016 | 58 | 23 | 1.0 | 3.0 | 0.00 | 0.00 | 0.00 | 68 | 1020.9 |
| 20260503034516 | 58 | 180 | 2.0 | 4.0 | 0.00 | 0.00 | 0.00 | 66 | 1021.0 |
| 20260503034016 | 59 | 68 | 3.0 | 5.0 | 0.00 | 0.00 | 0.00 | 65 | 1021.0 |
| 20260503033516 | 59 | 68 | 3.0 | 5.0 | 0.00 | 0.00 | 0.00 | 63 | 1021.1 |